When you browse on this site, cookies collect data to enhance your experience and personalize the content and advertising you see.
Visit our Privacy Policy to learn more. By continuing to use the site, you agree to this use of cookies and data.
  • In Denmark
  • List of Countries
  • For 7 days
  • Water Temperature
  • Weather Map
  • Weather Widgets
  • user-avatar
    Login

    Hourly Weather Garca

    Today, 27 May, Wednesday

    Time Temperature Precipitation Wind Pressure Humidity
    00:00 +10°C° 0 mm 1 mps 703 mmHg 87%
    01:00 +10°C° 0 mm 1 mps 703 mmHg 88%
    02:00 +9°C° 0 mm 1 mps 703 mmHg 89%
    03:00 +8°C° 0 mm 0 mps 703 mmHg 90%
    04:00 +8°C° 0 mm 0 mps 703 mmHg 90%
    05:00 +8°C° 0 mm 0 mps 703 mmHg 90%
    06:00 +7°C° 0 mm 0 mps 703 mmHg 90%
    07:00 +9°C° 0 mm 0 mps 704 mmHg 84%
    08:00 +11°C° 0 mm 0 mps 705 mmHg 77%
    09:00 +13°C° 0 mm 0 mps 705 mmHg 70%
    10:00 +15°C° 0 mm 0 mps 706 mmHg 63%
    11:00 +19°C° 0 mm 1 mps 706 mmHg 56%
    12:00 +21°C° 0 mm 1 mps 706 mmHg 49%
    13:00 +21°C° 0 mm 1 mps 705 mmHg 48%
    14:00 +22°C° 0 mm 1 mps 705 mmHg 47%
    15:00 +20°C° 0 mm 0 mps 704 mmHg 45%
    16:00 +18°C° 0 mm 0 mps 704 mmHg 53%
    17:00 +16°C° 0 mm 0 mps 704 mmHg 61%
    18:00 +14°C° 0 mm 0 mps 704 mmHg 69%
    19:00 +13°C° 0 mm 0 mps 704 mmHg 71%
    20:00 +12°C° 0 mm 0 mps 704 mmHg 74%
    21:00 +12°C° 0 mm 0 mps 704 mmHg 76%
    22:00 +12°C° 0 mm 0 mps 704 mmHg 77%
    23:00 +12°C° 0 mm 1 mps 704 mmHg 78%

    Tomorrow, 28 May, Thursday

    Time Temperature Precipitation Wind Pressure Humidity
    00:00 +12°C° 0 mm 1 mps 704 mmHg 79%
    01:00 +12°C° 0 mm 1 mps 704 mmHg 81%
    02:00 +11°C° 0 mm 1 mps 704 mmHg 83%
    03:00 +10°C° 0 mm 2 mps 703 mmHg 85%
    04:00 +10°C° 0 mm 2 mps 704 mmHg 87%
    05:00 +9°C° 0 mm 2 mps 704 mmHg 90%
    06:00 +9°C° 0 mm 2 mps 704 mmHg 92%
    07:00 +10°C° 0 mm 2 mps 705 mmHg 86%
    08:00 +12°C° 0 mm 3 mps 705 mmHg 80%
    09:00 +14°C° 0 mm 3 mps 706 mmHg 74%
    10:00 +17°C° 0 mm 3 mps 706 mmHg 66%
    11:00 +19°C° 0 mm 3 mps 706 mmHg 58%
    12:00 +21°C° 0 mm 3 mps 706 mmHg 50%
    13:00 +21°C° 0 mm 3 mps 706 mmHg 49%
    14:00 +21°C° 0 mm 2 mps 705 mmHg 48%
    15:00 +23°C° 0 mm 2 mps 705 mmHg 47%
    16:00 +20°C° 0 mm 2 mps 704 mmHg 55%
    17:00 +18°C° 0 mm 2 mps 704 mmHg 62%
    18:00 +16°C° 0 mm 2 mps 704 mmHg 70%
    19:00 +15°C° 0 mm 2 mps 704 mmHg 73%
    20:00 +14°C° 0 mm 2 mps 704 mmHg 75%
    21:00 +13°C° 0 mm 2 mps 704 mmHg 77%
    22:00 +13°C° 0 mm 2 mps 704 mmHg 81%
    23:00 +13°C° 0 mm 2 mps 704 mmHg 84%

    Day after tomorrow, 29 May, Friday

    Time Temperature Precipitation Wind Pressure Humidity
    00:00 +12°C° 0 mm 2 mps 704 mmHg 87%
    01:00 +12°C° 0 mm 2 mps 704 mmHg 88%
    02:00 +12°C° 0 mm 2 mps 704 mmHg 89%
    03:00 +10°C° 0 mm 2 mps 704 mmHg 90%
    04:00 +10°C° 0 mm 2 mps 704 mmHg 90%
    05:00 +10°C° 0 mm 2 mps 704 mmHg 91%
    06:00 +9°C° 0 mm 2 mps 704 mmHg 91%
    07:00 +12°C° 0 mm 2 mps 704 mmHg 86%
    08:00 +13°C° 0 mm 3 mps 705 mmHg 80%
    09:00 +14°C° 0 mm 3 mps 705 mmHg 75%
    10:00 +18°C° 0 mm 3 mps 706 mmHg 68%
    11:00 +20°C° 0 mm 3 mps 706 mmHg 62%
    12:00 +22°C° 0 mm 3 mps 706 mmHg 55%
    13:00 +24°C° 0 mm 3 mps 705 mmHg 53%
    14:00 +24°C° 0 mm 2 mps 705 mmHg 51%
    15:00 +24°C° 0 mm 2 mps 704 mmHg 48%
    16:00 +21°C° 0 mm 2 mps 704 mmHg 55%
    17:00 +20°C° 0 mm 1 mps 704 mmHg 61%
    18:00 +18°C° 0 mm 1 mps 704 mmHg 67%
    19:00 +18°C° 0 mm 1 mps 704 mmHg 69%
    20:00 +16°C° 0 mm 1 mps 704 mmHg 71%
    21:00 +15°C° 0 mm 1 mps 704 mmHg 72%
    22:00 +15°C° 0 mm 1 mps 704 mmHg 74%
    23:00 +14°C° 0 mm 1 mps 704 mmHg 76%

    30 May, Saturday

    Time Temperature Precipitation Wind Pressure Humidity
    00:00 +14°C° 0 mm 1 mps 704 mmHg 78%
    01:00 +13°C° 0 mm 1 mps 704 mmHg 80%
    02:00 +13°C° 0 mm 1 mps 704 mmHg 81%
    03:00 +13°C° 0 mm 1 mps 704 mmHg 83%
    04:00 +12°C° 0 mm 1 mps 704 mmHg 84%
    05:00 +12°C° 0 mm 1 mps 704 mmHg 86%
    06:00 +12°C° 0 mm 1 mps 704 mmHg 88%
    07:00 +14°C° 0 mm 2 mps 704 mmHg 83%
    08:00 +15°C° 0 mm 2 mps 705 mmHg 78%
    09:00 +17°C° 0 mm 2 mps 706 mmHg 74%
    10:00 +19°C° 0 mm 2 mps 706 mmHg 68%
    11:00 +21°C° 0 mm 2 mps 706 mmHg 62%
    12:00 +24°C° 0 mm 2 mps 706 mmHg 56%
    13:00 +25°C° 0 mm 2 mps 706 mmHg 54%
    14:00 +25°C° 0 mm 2 mps 705 mmHg 51%
    15:00 +26°C° 0 mm 1 mps 705 mmHg 48%
    16:00 +23°C° 0 mm 1 mps 704 mmHg 55%
    17:00 +21°C° 0 mm 1 mps 704 mmHg 63%
    18:00 +19°C° 0 mm 1 mps 704 mmHg 71%
    19:00 +17°C° 0 mm 0 mps 704 mmHg 73%
    20:00 +16°C° 0 mm 0 mps 704 mmHg 75%
    21:00 +15°C° 0 mm 0 mps 704 mmHg 78%
    22:00 +15°C° 0 mm 0 mps 704 mmHg 79%
    23:00 +15°C° 0 mm 0 mps 704 mmHg 80%

    31 May, Sunday

    Time Temperature Precipitation Wind Pressure Humidity
    00:00 +14°C° 0 mm 0 mps 704 mmHg 81%
    01:00 +14°C° 0 mm 0 mps 704 mmHg 82%
    02:00 +13°C° 0 mm 0 mps 703 mmHg 83%
    03:00 +13°C° 0 mm 0 mps 703 mmHg 85%
    04:00 +13°C° 0 mm 0 mps 703 mmHg 85%
    05:00 +12°C° 0 mm 0 mps 703 mmHg 86%
    06:00 +12°C° 0 mm 0 mps 704 mmHg 87%
    07:00 +14°C° 0 mm 0 mps 704 mmHg 81%
    08:00 +16°C° 0 mm 0 mps 705 mmHg 75%
    09:00 +18°C° 0 mm 0 mps 706 mmHg 69%
    10:00 +20°C° 0 mm 0 mps 706 mmHg 64%
    11:00 +24°C° 0 mm 1 mps 706 mmHg 58%
    12:00 +25°C° 0 mm 1 mps 706 mmHg 52%
    13:00 +26°C° 0 mm 1 mps 705 mmHg 51%
    14:00 +26°C° 0 mm 1 mps 705 mmHg 50%
    15:00 +26°C° 0 mm 1 mps 704 mmHg 48%
    16:00 +24°C° 0 mm 1 mps 704 mmHg 56%
    17:00 +22°C° 0 mm 1 mps 704 mmHg 64%
    18:00 +20°C° 0 mm 1 mps 704 mmHg 71%
    19:00 +18°C° 0 mm 0 mps 704 mmHg 73%
    20:00 +17°C° 0 mm 0 mps 704 mmHg 75%
    21:00 +17°C° 0 mm 0 mps 704 mmHg 77%
    22:00 +16°C° 0 mm 0 mps 704 mmHg 78%
    23:00 +16°C° 0 mm 0 mps 704 mmHg 79%

    1 June, Monday

    Time Temperature Precipitation Wind Pressure Humidity
    00:00 +16°C° 0 mm 0 mps 704 mmHg 80%
    01:00 +16°C° 0 mm 1 mps 703 mmHg 81%
    02:00 +16°C° 0 mm 1 mps 703 mmHg 83%
    03:00 +16°C° 0 mm 1 mps 703 mmHg 84%
    04:00 +15°C° 0 mm 1 mps 703 mmHg 86%
    05:00 +15°C° 0 mm 2 mps 703 mmHg 88%
    06:00 +14°C° 0 mm 2 mps 703 mmHg 90%
    07:00 +16°C° 0 mm 2 mps 704 mmHg 85%
    08:00 +17°C° 0 mm 2 mps 704 mmHg 81%
    09:00 +18°C° 0 mm 3 mps 705 mmHg 76%
    10:00 +20°C° 0 mm 3 mps 705 mmHg 70%
    11:00 +22°C° 0 mm 3 mps 705 mmHg 64%
    12:00 +25°C° 0 mm 4 mps 705 mmHg 58%
    13:00 +25°C° 0 mm 3 mps 704 mmHg 57%
    14:00 +26°C° 0 mm 3 mps 704 mmHg 56%
    15:00 +26°C° 0 mm 2 mps 703 mmHg 56%
    16:00 +24°C° 0 mm 2 mps 703 mmHg 61%
    17:00 +23°C° 0 mm 2 mps 702 mmHg 67%
    18:00 +21°C° 0 mm 1 mps 702 mmHg 73%
    19:00 +20°C° 0 mm 1 mps 702 mmHg 74%
    20:00 +20°C° 0 mm 1 mps 702 mmHg 75%
    21:00 +18°C° 0 mm 2 mps 702 mmHg 76%
    22:00 +18°C° 0 mm 2 mps 702 mmHg 75%
    23:00 +19°C° 0 mm 2 mps 702 mmHg 73%
    Show more